This is the latest recevied weather packets stored in our database for station/object KB4KY. If no packets are shown the sender has not sent any weather packets the latest 10 day(s).
| Time | Temp. | Humidity | Pressure | Rain* | Wind** | Luminosity | Snow |
|---|---|---|---|---|---|---|---|
| 1778095570 | 17.78° C | 61% | 1011.9 hPa | 0 mm | - | - | - |
| 1778095436 | 17.22° C | 62% | 1011.8 hPa | 0 mm | - | - | - |
| 1778095135 | 17.22° C | 60% | 1011.9 hPa | 0 mm | - | - | - |
| 1778094835 | 17.22° C | 64% | 1011.9 hPa | 0 mm | - | - | - |
| 1778094536 | 17.78° C | 61% | 1011.9 hPa | 0 mm | - | - | - |
| 1778094235 | 17.78° C | 59% | 1011.8 hPa | 0 mm | - | - | - |
| 1778094167 | 18.33° C | 59% | 1011.8 hPa | 0 mm | - | - | - |
| 1778093934 | 18.33° C | 59% | 1011.8 hPa | 0 mm | - | - | - |
| 1778093634 | 18.89° C | 59% | 1011.7 hPa | 0 mm | - | - | - |
| 1778093334 | 18.89° C | 60% | 1011.4 hPa | 0 mm | - | - | - |
| 1778093033 | 18.33° C | 60% | 1011.5 hPa | 0 mm | - | - | - |
| 1778092733 | 18.33° C | 60% | 1011.6 hPa | 0 mm | - | - | - |
| 1778092433 | 17.78° C | 61% | 1011.9 hPa | 0 mm | - | - | - |
| 1778092133 | 17.78° C | 63% | 1011.9 hPa | 0 mm | - | - | - |
| 1778091832 | 17.78° C | 60% | 1011.9 hPa | 0 mm | - | - | - |
| 1778091534 | 17.78° C | 60% | 1011.8 hPa | 0 mm | - | - | - |
| 1778091372 | 17.78° C | 62% | 1011.7 hPa | 0 mm | - | - | - |
| 1778091232 | 17.78° C | 59% | 1011.8 hPa | 0 mm | - | - | - |
| 1778090931 | 17.78° C | 62% | 1011.7 hPa | 0 mm | - | - | - |
| 1778090631 | 17.78° C | 63% | 1011.8 hPa | 0 mm | - | - | - |
| 1778090333 | 17.78° C | 63% | 1012.1 hPa | 0 mm | - | - | - |
| 1778089733 | 17.22° C | 64% | 1012.1 hPa | 0 mm | - | - | - |
| 1778089430 | 17.22° C | 63% | 1012 hPa | 0 mm | - | - | - |
| 1778089133 | 16.67° C | 66% | 1011.9 hPa | 0 mm | - | - | - |
| 1778088829 | 16.67° C | 66% | 1012.1 hPa | 0 mm | - | - | - |
* Rain latest hour (hover to see other rain measurements)
** Current wind speed in m/s (hover to see current wind gust speed)